Weather History for Fayetteville, NC

Change the Weather History Date:

Wednesday, December 12, 2012

  Actual Average Record
Temperature  
Mean Temperature 47 °F 46 °F  
Max Temperature 54 °F 56 °F 81 °F (1931)
Min Temperature 40 °F 36 °F 12 °F (1957)
Degree Days  
Heating Degree Days 18 19  
Month to date heating degree days 87 209  
Since 1 July heating degree days 678 657  
Cooling Degree Days 0 0  
Month to date cooling degree days 3 0  
Year to date cooling degree days 2086 1991  
Moisture  
Dew Point 41 °F    
Average Humidity 80    
Maximum Humidity 93    
Minimum Humidity 66    
Precipitation  
Precipitation 0.50 in 0.09 in 2.03 in (1982)
Month to date precipitation 0.57 1.22  
Year to date precipitation 37.26 43.03  
Sea Level Pressure  
Sea Level Pressure 30.21 in    
Wind  
Wind Speed 12 mph (NNE)    
Max Wind Speed 21 mph    
Max Gust Speed 26 mph    
Visibility 8 miles    
Events Rain    
T = Trace of Precipitation, MM = Missing Value Source: NWS Daily Summary

Daily Weather History Graph

Daily Weather History Graph

Search for Another Location

Airport:

Trip Planner

Search our weather history database for the weather conditions in past years. The results will help you decide how hot, cold, wet, or windy it might be!

Date:

Astronomy

Dec. 12, 2012 Rise Set
Actual Time 7:14 AM EST 5:04 PM EST
Civil Twilight 6:46 AM EST 5:32 PM EST
Nautical Twilight 6:14 AM EST 6:04 PM EST
Astronomical Twilight 5:43 AM EST 6:35 PM EST
Moon 6:17 AM EST (12/12) 4:39 PM EST (12/12)
Length of Visible Light 10h 46m
Length of Day
9h 50m
Waning Crescent, 1% of the Moon is Illuminated
Dec 12
Waning Crescent
Dec 13
New
Dec 20
First Quarter
Dec 28
Full
Jan 4
Last Quarter

Hourly Weather History & Observations

Time (EST) Temp. Windchill Dew Point Humidity Pressure Visibility Wind Dir Wind Speed Gust Speed Precip Events Conditions
12:53 AM 53.1 °F - 43.0 °F 69% 30.09 in 10.0 mi NNE 12.7 mph - N/A   Overcast
1:53 AM 52.0 °F - 44.1 °F 74% 30.12 in 10.0 mi NE 6.9 mph - 0.00 in   Overcast
2:53 AM 48.9 °F - 44.1 °F 83% 30.12 in 10.0 mi NE 9.2 mph - 0.01 in   Overcast
3:53 AM 48.0 °F - 44.1 °F 86% 30.14 in 7.0 mi NNE 9.2 mph - 0.01 in   Overcast
4:10 AM 46.4 °F 41.9 °F 44.6 °F 93% 30.15 in 3.0 mi NE 9.2 mph - N/A   Overcast
4:28 AM 46.4 °F 41.5 °F 44.6 °F 93% 30.16 in 2.5 mi NNE 10.4 mph - N/A   Overcast
4:35 AM 46.4 °F 41.9 °F 44.6 °F 93% 30.16 in 3.0 mi NE 9.2 mph - N/A   Overcast
4:53 AM 46.0 °F 40.6 °F 44.1 °F 93% 30.16 in 3.0 mi NNE 11.5 mph - 0.00 in   Overcast
5:53 AM 46.0 °F 40.6 °F 44.1 °F 93% 30.17 in 6.0 mi NE 11.5 mph - 0.01 in   Overcast
6:53 AM 46.0 °F 41.0 °F 43.0 °F 89% 30.19 in 9.0 mi NNE 10.4 mph 19.6 mph N/A   Overcast
7:35 AM 46.4 °F 41.1 °F 42.8 °F 87% 30.20 in 10.0 mi ENE 11.5 mph 19.6 mph N/A   Overcast
7:53 AM 46.0 °F 42.5 °F 42.1 °F 86% 30.21 in 10.0 mi ENE 6.9 mph - N/A   Overcast
8:53 AM 46.9 °F - 43.0 °F 86% 30.23 in 10.0 mi NNE 9.2 mph - N/A   Overcast
9:53 AM 46.9 °F - 39.9 °F 77% 30.25 in 10.0 mi NNE 12.7 mph 21.9 mph N/A   Overcast
10:53 AM 48.0 °F - 39.0 °F 71% 30.25 in 10.0 mi NNE 12.7 mph - N/A   Overcast
11:53 AM 48.0 °F - 39.0 °F 71% 30.22 in 10.0 mi NNE 12.7 mph 20.7 mph N/A   Overcast
12:53 PM 48.0 °F - 37.9 °F 68% 30.22 in 10.0 mi NNE 12.7 mph - N/A   Overcast
1:53 PM 46.9 °F - 37.0 °F 68% 30.21 in 10.0 mi NNE 16.1 mph - N/A   Overcast
2:53 PM 46.0 °F 38.8 °F 37.0 °F 71% 30.22 in 10.0 mi NNE 18.4 mph 24.2 mph N/A   Overcast
3:53 PM 45.0 °F 37.9 °F 37.0 °F 74% 30.25 in 9.0 mi NNE 16.1 mph - 0.00 in Rain Light Rain
4:53 PM 43.0 °F 37.2 °F 39.0 °F 86% 30.25 in 6.0 mi NE 10.4 mph - 0.02 in Rain Light Rain
5:12 PM 42.8 °F 37.0 °F 39.2 °F 87% 30.27 in 6.0 mi NNE 10.4 mph 16.1 mph 0.03 in Rain Light Rain
5:53 PM 41.0 °F 34.7 °F 39.0 °F 93% 30.25 in 9.0 mi NNE 10.4 mph - 0.07 in Rain Light Rain
6:53 PM 42.1 °F 37.1 °F 39.0 °F 89% 30.24 in 10.0 mi NE 8.1 mph - 0.02 in   Mostly Cloudy
7:53 PM 42.1 °F 36.1 °F 39.0 °F 89% 30.26 in 6.0 mi NNE 10.4 mph - 0.03 in Rain Light Rain
8:53 PM 41.0 °F 34.3 °F 39.0 °F 93% 30.26 in 8.0 mi North 11.5 mph - 0.05 in Rain Light Rain
9:29 PM 41.0 °F 33.5 °F 39.2 °F 93% 30.28 in 7.0 mi NNE 13.8 mph - 0.05 in Rain Light Rain
9:53 PM 41.0 °F 33.9 °F 37.9 °F 89% 30.27 in 6.0 mi NNE 12.7 mph 23.0 mph 0.08 in Rain Light Rain
10:53 PM 39.9 °F 31.8 °F 37.0 °F 89% 30.25 in 5.0 mi NNE 15.0 mph 26.5 mph 0.11 in Rain Light Rain
11:53 PM 39.9 °F 32.1 °F 37.9 °F 93% 30.24 in 6.0 mi NE 13.8 mph 21.9 mph 0.08 in Rain Light Rain